パンスターズ彗星

460P/PanSTARRS (2021)

English version
Home page
Updated on April 22, 2023

---------------------------------------------------------------------

・ プロフィール

符号 460P/2020 U6
検出日 2020年10月17日
検出光度 22.6等
検出者 Pan-STARRS 1 telescope (Haleakala)

・ 軌道要素

                    Epoch = 2021 July  5.0 TT
     T = 2021 June 17.30762 TT        Peri. = 351.88801
     e = 0.6652062                    Node  = 180.52654 2000.0
     q = 1.0128243 AU                 Incl. =  18.89375
       a =  3.0252183 AU   n = 0.18731346   P =   5.26 years

・ 光度変化

        H = 19.0  G = 0.15

---------------------------------------------------------------------

軌道要素は、CBET 5243に掲載されたものです。
光度グラフはComet for Windowsで作成したものです。

---------------------------------------------------------------------

Copyright(C) Seiichi Yoshida (comet@aerith.net). All rights reserved.